1491267600.72,39347,14.75,73972.3,-0.77,-2.27,-2.23,0,*6E
1491267601.93,39348,14.75,73968.3,-0.79,-2.27,-2.27,0,*6B
1491267603.14,39349,14.75,73974.3,-0.79,-2.15,-2.15,0,*6A
1491267604.33,39350,14.75,73976.8,-0.81,-2.19,-2.19,0,*65
1491267605.52,39351,14.75,73976.3,-0.77,-2.15,-2.15,0,*6D
1491267606.77,39352,14.75,73976.8,-0.77,-2.11,-2.11,0,*6E
1491267608.01,39353,14.75,73966.3,-0.77,-2.03,-2.11,0,*6C
1491267609.25,39354,14.75,73972.5,-0.77,-2.11,-2.11,0,*68
1491267610.44,39355,14.75,73974.8,-0.77,-2.15,-2.23,0,*6C
1491267611.69,39356,14.75,73974.8,-0.77,-2.03,-2.03,0,*6A
1491267612.96,39357,14.75,73972.8,-0.79,-1.91,-1.99,0,*6D
1491267614.22,39358,14.75,73972.8,-0.79,-1.91,-1.91,0,*6A
1491267615.49,39359,14.75,73974.3,-0.79,-1.87,-1.99,0,*64
1491267616.77,39360,14.75,73972.3,-0.79,-1.99,-1.91,0,*69
1491267618.04,39361,14.75,73966.8,-0.79,-1.91,-1.99,0,*68
1491267619.31,39362,14.75,73976.5,-0.79,-2.11,-2.11,0,*63
1491267620.58,39363,14.69,73972.0,-0.79,-2.03,-2.07,0,*66
1491267621.83,39364,14.69,73968.5,-0.81,-2.03,-2.03,0,*62
1491267623.1,39365,14.69,73968.0,-0.79,-2.03,-1.99,0,*64
1491267624.37,39366,14.75,73970.3,-0.79,-2.03,-1.99,0,*67
1491267625.62,39367,14.69,73968.3,-0.81,-2.07,-2.07,0,*61
1491267626.89,39368,14.75,73966.5,-0.79,-2.11,-2.11,0,*69
1491267628.14,39369,14.69,73966.0,-0.81,-2.07,-2.07,0,*6F
1491267629.39,39370,14.75,73964.5,-0.81,-2.07,-2.03,0,*63
1491267630.66,39371,14.75,73970.0,-0.79,-2.03,-2.03,0,*61
1491267631.88,39372,14.69,73966.8,-0.81,-2.03,-2.15,0,*62
1491267633.13,39373,14.69,73964.8,-0.81,-2.03,-2.07,0,*60
1491267634.39,39374,14.69,73966.3,-0.83,-1.95,-1.95,0,*61
1491267635.67,39375,14.69,73970.5,-0.83,-2.03,-2.07,0,*64
1491267636.94,39376,14.69,73968.5,-0.85,-1.99,-2.07,0,*61
1491267638.2,39377,14.75,73972.0,-0.83,-1.83,-1.95,0,*65
1491267639.47,39378,14.69,73970.5,-0.83,-1.91,-1.91,0,*6D
1491267640.74,39379,14.69,73968.5,-0.83,-1.83,-1.83,0,*6C
1491267642.01,39380,14.75,73974.5,-0.83,-1.91,-1.83,0,*69
1491267643.23,39381,14.69,73968.3,-0.83,-1.79,-1.79,0,*6B
1491267644.5,39382,14.75,73972.0,-0.83,-1.91,-1.91,0,*68
1491267645.77,39383,14.69,73970.8,-0.83,-1.91,-1.83,0,*6A
1491267647.04,39384,14.69,73970.3,-0.83,-1.91,-1.91,0,*6E
1491267648.31,39385,14.75,73976.5,-0.83,-1.83,-1.83,0,*6F
1491267649.58,39386,14.75,73974.0,-0.83,-1.91,-1.91,0,*6C
1491267650.85,39387,14.69,73974.3,-0.83,-1.95,-1.83,0,*6A
1491267652.12,39388,14.75,73974.0,-0.83,-1.91,-1.91,0,*62
1491267653.35,39389,14.75,73974.8,-0.81,-1.91,-1.95,0,*65
1491267654.63,39390,14.75,73972.8,-0.83,-1.83,-1.91,0,*68
1491267655.89,39391,14.75,73974.0,-0.83,-1.91,-1.91,0,*6A
1491267657.16,39392,14.75,73972.3,-0.83,-2.03,-1.95,0,*65
1491267658.43,39393,14.69,73974.0,-0.83,-2.03,-2.03,0,*68
1491267659.68,39394,14.75,73974.0,-0.83,-2.15,-2.07,0,*6C
1491267660.92,39395,14.69,73970.8,-0.85,-2.19,-2.07,0,*67
1491267662.14,39396,14.69,73972.5,-0.83,-2.15,-2.15,0,*6D
1491267663.35,39397,14.69,73978.3,-0.83,-2.15,-2.19,0,*60
1491267664.57,39398,14.75,73978.5,-0.83,-2.15,-2.15,0,*63
1491267665.79,39399,14.75,73978.3,-0.83,-2.15,-2.19,0,*6E
1491267667.04,39400,14.69,73978.0,-0.83,-2.07,-2.15,0,*66
1491267668.31,39401,14.69,73974.5,-0.85,-2.11,-2.07,0,*65
1491267669.58,39402,14.75,73970.8,-0.83,-2.07,-2.07,0,*67
1491267670.86,39403,14.69,73972.5,-0.83,-2.11,-2.07,0,*61
1491267672.11,39404,14.69,73970.8,-0.83,-2.07,-2.15,0,*62
1491267673.32,39405,14.69,73968.8,-0.85,-2.35,-2.35,0,*66
1491267674.53,39406,14.69,73974.0,-0.83,-2.39,-2.39,0,*63
1491267675.78,39407,14.69,73974.5,-0.83,-2.43,-2.47,0,*66
1491267677.05,39408,14.75,73976.8,-0.83,-2.55,-2.59,0,*61
1491267678.29,39409,14.75,73972.8,-0.83,-2.39,-2.59,0,*6A
1491267679.51,39410,14.75,73976.0,-0.83,-2.31,-2.39,0,*6C
1491267680.75,39411,14.75,73972.8,-0.85,-2.35,-2.51,0,*61
1491267681.99,39412,14.69,73974.3,-0.85,-2.43,-2.63,0,*62
1491267683.2,39413,14.69,73974.5,-0.83,-2.31,-2.43,0,*62
1491267684.43,39414,14.75,73974.5,-0.83,-2.27,-2.31,0,*67
1491267685.63,39415,14.69,73976.3,-0.85,-2.23,-2.35,0,*60
1491267686.85,39416,14.69,73974.8,-0.85,-2.31,-2.43,0,*61
1491267688.06,39417,14.75,73976.8,-0.85,-2.23,-2.31,0,*66
1491267689.3,39418,14.75,73976.3,-0.85,-2.11,-2.31,0,*68
1491267690.55,39419,14.75,73976.5,-0.85,-2.11,-2.31,0,*69
1491267691.79,39420,14.69,73972.5,-0.85,-2.31,-2.47,0,*60
1491267693.06,39421,14.69,73970.8,-0.85,-2.47,-2.63,0,*66
1491267694.29,39422,14.69,73972.3,-0.89,-2.39,-2.55,0,*65
1491267695.5,39423,14.69,73978.3,-0.89,-2.35,-2.39,0,*62
1491267696.74,39424,14.75,73984.8,-0.89,-2.27,-2.47,0,*6F
1491267697.97,39425,14.75,73978.3,-0.85,-2.23,-2.47,0,*66
1491267699.21,39426,14.75,73978.5,-0.85,-2.47,-2.83,0,*6F
1491267700.45,39427,14.69,73976.8,-0.85,-2.35,-2.59,0,*6C
1491267701.66,39428,14.75,73982.8,-0.89,-2.23,-2.39,0,*6E
1491267702.86,39429,14.75,73980.0,-0.89,-2.27,-2.35,0,*67
1491267704.08,39430,14.75,73980.0,-0.89,-2.27,-2.35,0,*6F
1491267705.28,39431,14.75,73978.8,-0.89,-2.27,-2.27,0,*6D
1491267706.49,39432,14.69,73978.8,-0.89,-2.23,-2.23,0,*6E
1491267707.7,39433,14.69,73974.5,-0.89,-2.35,-2.35,0,*6F
1491267708.91,39434,14.69,73974.5,-0.89,-2.27,-2.27,0,*68
1491267710.12,39435,14.69,73974.0,-0.89,-2.23,-2.27,0,*6D
1491267711.33,39436,14.69,73972.5,-0.89,-2.35,-2.35,0,*6A
1491267712.54,39437,14.69,73972.8,-0.89,-2.35,-2.35,0,*6B
1491267713.74,39438,14.69,73974.5,-0.89,-2.35,-2.27,0,*67
1491267714.96,39439,14.75,73978.5,-0.89,-2.15,-2.23,0,*60
1491267716.16,39440,14.69,73972.5,-0.89,-2.23,-2.27,0,*6F
1491267717.35,39441,14.75,73978.8,-0.91,-2.15,-2.27,0,*62
1491267718.61,39442,14.75,73974.0,-0.85,-2.07,-2.11,0,*62
1491267719.83,39443,14.75,73972.0,-0.89,-2.15,-2.23,0,*6D
1491267721.04,39444,14.75,73974.5,-0.89,-2.15,-2.23,0,*6A
1491267722.25,39445,14.75,73972.5,-0.89,-2.15,-2.23,0,*6B
1491267723.49,39446,14.69,73972.5,-0.89,-2.11,-2.15,0,*69
1491267724.76,39447,14.69,73974.3,-0.89,-2.11,-2.11,0,*6C
1491267726.0,39448,14.69,73972.8,-0.89,-2.11,-2.23,0,*62
1491267727.22,39449,14.75,73974.8,-0.89,-2.23,-2.23,0,*62
1491267728.41,39450,14.75,73972.3,-0.91,-2.15,-2.23,0,*66
1491267729.61,39451,14.69,73970.8,-0.89,-2.23,-2.27,0,*6F
1491267730.89,39452,14.75,73972.5,-0.83,-2.07,-2.11,0,*65
1491267732.13,39453,14.69,73970.8,-0.89,-2.11,-2.15,0,*6D
1491267733.37,39454,14.69,73974.5,-0.89,-2.11,-2.15,0,*6A
1491267734.61,39455,14.69,73972.5,-0.91,-2.03,-2.11,0,*65
1491267735.81,39456,14.75,73974.8,-0.91,-2.15,-2.23,0,*60
1491267737.02,39457,14.75,73970.5,-0.89,-2.15,-2.35,0,*6F
1491267738.22,39458,14.69,73968.5,-0.89,-2.15,-2.27,0,*63
1491267739.47,39459,14.69,73970.3,-0.89,-2.11,-2.23,0,*62
1491267740.68,39460,14.69,73968.5,-0.89,-2.15,-2.27,0,*68
1491267741.88,39461,14.69,73964.8,-0.89,-2.23,-2.27,0,*6C
1491267743.07,39462,14.69,73974.0,-0.91,-2.23,-2.23,0,*62
1491267744.29,39463,14.69,73974.5,-0.91,-2.11,-2.15,0,*67
1491267745.54,39464,14.69,73972.5,-0.89,-2.03,-2.23,0,*6F
1491267746.74,39465,14.69,73968.3,-0.89,-2.15,-2.27,0,*6D
1491267747.95,39466,14.69,73968.3,-0.89,-2.15,-2.23,0,*6A
1491267749.17,39467,14.69,73964.5,-0.89,-2.23,-2.23,0,*6E
1491267750.36,39468,14.69,73968.0,-0.91,-2.23,-2.35,0,*6F
1491267751.6,39469,14.69,73968.8,-0.89,-2.03,-2.15,0,*67
1491267752.84,39470,14.69,73972.5,-0.89,-2.11,-2.15,0,*6C
1491267754.09,39471,14.69,73970.5,-0.91,-1.99,-2.03,0,*60
1491267755.33,39472,14.69,73970.8,-0.91,-1.99,-2.11,0,*60
1491267756.59,39473,14.69,73970.0,-0.89,-1.91,-2.03,0,*63
1491267757.86,39474,14.75,73974.8,-0.89,-1.91,-2.03,0,*64
1491267759.1,39475,14.69,73970.0,-0.91,-1.91,-1.99,0,*6C
1491267760.34,39476,14.69,73968.5,-0.91,-1.91,-1.91,0,*67
1491267761.58,39477,14.69,73970.3,-0.91,-1.87,-1.91,0,*61
1491267762.84,39478,14.69,73970.3,-0.89,-1.87,-1.91,0,*67
1491267764.08,39479,14.69,73968.0,-0.89,-1.79,-1.91,0,*67
1491267765.34,39480,14.69,73968.0,-0.89,-1.91,-1.99,0,*6F
1491267766.61,39481,14.69,73970.3,-0.89,-1.91,-1.91,0,*66
1491267767.82,39482,14.69,73966.5,-0.91,-1.79,-1.87,0,*6D
1491267769.08,39483,14.69,73968.0,-0.89,-1.87,-1.87,0,*64
1491267770.33,39484,14.69,73962.0,-0.91,-1.87,-1.87,0,*6A
1491267771.55,39485,14.69,73968.5,-0.91,-1.87,-1.79,0,*6A
1491267772.74,39486,14.69,73964.3,-0.91,-1.79,-1.79,0,*68
1491267773.95,39487,14.69,73962.0,-0.89,-1.79,-1.75,0,*6C
1491267775.14,39488,14.69,73964.5,-0.91,-1.75,-1.75,0,*66
1491267776.33,39489,14.69,73966.8,-0.91,-1.79,-1.79,0,*67
1491267777.59,39490,14.69,73966.0,-0.89,-1.87,-1.87,0,*66
1491267778.86,39491,14.69,73964.3,-0.89,-1.91,-1.99,0,*6F
1491267780.1,39492,14.69,73964.0,-0.91,-1.91,-1.91,0,*6D
1491267781.36,39493,14.69,73962.0,-0.89,-1.87,-1.91,0,*62
1491267782.57,39494,14.69,73960.0,-0.89,-1.79,-1.79,0,*62
1491267783.78,39495,14.69,73960.0,-0.89,-1.79,-1.79,0,*63
1491267785.02,39496,14.69,73966.0,-0.91,-1.87,-1.87,0,*69
1491267786.26,39497,14.69,73964.5,-0.89,-1.87,-1.79,0,*60
1491267787.5,39498,14.69,73966.0,-0.89,-1.79,-1.87,0,*6F
1491267788.76,39499,14.69,73964.3,-0.89,-1.87,-1.91,0,*68
1491267790.0,39500,14.69,73964.8,-0.91,-1.91,-1.91,0,*67
1491267791.27,39501,14.69,73960.5,-0.89,-1.87,-1.87,0,*6F
1491267792.51,39502,14.69,73966.8,-0.91,-1.87,-1.91,0,*62
1491267793.77,39503,14.69,73966.0,-0.89,-1.87,-1.91,0,*6A
1491267794.99,39504,14.69,73966.8,-0.91,-1.87,-1.79,0,*62
1491267796.18,39505,14.69,73962.8,-0.91,-1.79,-1.79,0,*62
1491267797.37,39506,14.69,73964.3,-0.91,-1.79,-1.79,0,*61
1491267798.58,39507,14.69,73962.3,-0.89,-1.79,-1.75,0,*65
1491267799.8,39508,14.69,73960.3,-0.89,-1.79,-1.75,0,*6A
1491267801.01,39509,14.69,73960.5,-0.91,-1.79,-1.87,0,*6F
1491267802.28,39510,14.69,73964.5,-0.89,-1.99,-1.91,0,*67
1491267803.52,39511,14.69,73964.0,-0.91,-1.99,-1.91,0,*6F
1491267804.77,39512,14.69,73964.0,-0.91,-1.99,-1.99,0,*64
1491267806.03,39513,14.69,73966.3,-0.89,-1.91,-1.91,0,*6C
1491267807.3,39514,14.69,73966.8,-0.89,-1.91,-1.99,0,*63
1491267808.54,39515,14.69,73964.8,-0.89,-1.79,-1.87,0,*6B
1491267809.75,39516,14.69,73966.3,-0.91,-1.79,-1.87,0,*61
1491267810.99,39517,14.69,73964.5,-0.91,-1.87,-1.87,0,*61
1491267812.26,39518,14.75,73970.3,-0.89,-1.87,-1.87,0,*67
1491267813.52,39519,14.69,73964.0,-0.89,-1.87,-1.87,0,*66
1491267814.76,39520,14.69,73962.3,-0.91,-1.87,-1.87,0,*65
1491267816.03,39521,14.69,73962.5,-0.89,-1.87,-1.91,0,*6A
1491267817.3,39522,14.69,73962.3,-0.89,-1.99,-1.99,0,*6E
1491267818.53,39523,14.69,73960.0,-0.89,-1.79,-1.87,0,*6E
1491267819.77,39524,14.69,73960.0,-0.91,-1.91,-1.91,0,*61
1491267821.05,39525,14.69,73962.3,-0.89,-1.99,-1.99,0,*69
1491267822.29,39526,14.69,73964.5,-0.91,-1.91,-1.91,0,*63
1491267823.55,39527,14.69,73962.3,-0.89,-1.87,-1.91,0,*6C
1491267824.76,39528,14.69,73962.8,-0.89,-1.79,-1.79,0,*64
1491267825.97,39529,14.69,73958.0,-0.89,-1.79,-1.79,0,*65
1491267827.18,39530,14.69,73960.5,-0.89,-1.79,-1.79,0,*6D
1491267828.42,39531,14.69,73962.8,-0.89,-1.79,-1.87,0,*6D
1491267829.63,39532,14.69,73960.5,-0.89,-1.67,-1.79,0,*60
1491267830.84,39533,14.69,73966.5,-0.89,-1.75,-1.79,0,*62
1491267832.03,39534,14.75,73966.0,-0.91,-1.75,-1.67,0,*63
1491267833.25,39535,14.69,73962.3,-0.89,-1.67,-1.79,0,*67
1491267834.46,39536,14.69,73960.3,-0.89,-1.67,-1.75,0,*68
1491267835.67,39537,14.69,73956.0,-0.89,-1.75,-1.75,0,*6A
1491267836.88,39538,14.75,73962.0,-0.89,-1.67,-1.67,0,*65
1491267838.08,39539,14.69,73964.0,-0.91,-1.67,-1.67,0,*6D
1491267839.29,39540,14.75,73962.5,-0.89,-1.59,-1.67,0,*67
1491267840.5,39541,14.69,73960.0,-0.89,-1.63,-1.51,0,*6A
1491267841.7,39542,14.69,73964.3,-0.89,-1.59,-1.59,0,*68
1491267842.9,39543,14.69,73962.8,-0.89,-1.59,-1.59,0,*69
1491267844.12,39544,14.69,73960.0,-0.91,-1.47,-1.51,0,*60
1491267845.33,39545,14.69,73962.0,-0.89,-1.51,-1.63,0,*6E
1491267846.54,39546,14.69,73962.3,-0.89,-1.63,-1.63,0,*6C
1491267847.75,39547,14.75,73964.8,-0.89,-1.63,-1.67,0,*69
1491267848.97,39548,14.75,73966.8,-0.89,-1.63,-1.67,0,*66
1491267850.18,39549,14.69,73962.0,-0.89,-1.63,-1.67,0,*67
1491267851.39,39550,14.75,73966.5,-0.89,-1.63,-1.67,0,*6F
1491267852.59,39551,14.69,73960.0,-0.91,-1.63,-1.67,0,*67
1491267853.8,39552,14.75,73960.0,-0.89,-1.59,-1.67,0,*64
1491267854.99,39553,14.69,73960.5,-0.91,-1.63,-1.67,0,*65
1491267856.2,39554,14.69,73962.8,-0.89,-1.63,-1.75,0,*68
1491267857.41,39555,14.69,73966.8,-0.89,-1.63,-1.63,0,*6E
1491267858.62,39556,14.75,73964.0,-0.89,-1.63,-1.59,0,*64
1491267859.83,39557,14.75,73964.8,-0.89,-1.63,-1.63,0,*6C
1491267861.04,39558,14.75,73966.0,-0.89,-1.63,-1.63,0,*63
1491267862.25,39559,14.69,73966.0,-0.89,-1.63,-1.63,0,*62
1491267863.45,39560,14.75,73966.8,-0.89,-1.63,-1.59,0,*61
1491267864.66,39561,14.69,73966.5,-0.89,-1.75,-1.75,0,*69
1491267865.88,39562,14.75,73964.5,-0.89,-1.67,-1.67,0,*6A
1491267867.09,39563,14.69,73964.0,-0.89,-1.67,-1.67,0,*6B
1491267868.29,39564,14.75,73964.8,-0.91,-1.67,-1.67,0,*65
1491267869.5,39565,14.69,73960.0,-0.89,-1.75,-1.67,0,*6E
1491267870.69,39566,14.75,73966.3,-0.91,-1.75,-1.75,0,*67
1491267871.88,39567,14.69,73964.3,-0.91,-1.79,-1.79,0,*66
1491267873.09,39568,14.75,73968.0,-0.89,-1.67,-1.75,0,*63
1491267874.36,39569,14.75,73966.0,-0.89,-1.87,-1.87,0,*61
1491267875.62,39570,14.75,73966.8,-0.89,-1.87,-1.87,0,*69
1491267876.86,39571,14.69,73966.3,-0.89,-1.79,-1.87,0,*69
1491267878.12,39572,14.69,73962.0,-0.89,-1.87,-1.87,0,*6B
1491267879.36,39573,14.69,73962.5,-0.91,-1.87,-1.87,0,*63
1491267880.57,39574,14.75,73968.3,-0.89,-1.79,-1.75,0,*61
1491267881.79,39575,14.75,73964.8,-0.89,-1.79,-1.79,0,*6C
1491267882.98,39576,14.69,73964.5,-0.91,-1.79,-1.79,0,*66
1491267884.21,39577,14.75,73964.5,-0.89,-1.75,-1.87,0,*63
1491267885.47,39578,14.75,73968.5,-0.89,-1.87,-1.87,0,*61
1491267886.71,39579,14.69,73968.0,-0.89,-1.79,-1.87,0,*61
1491267887.9,39580,14.75,73966.3,-0.91,-1.79,-1.79,0,*6F
1491267889.14,39581,14.69,73960.5,-0.89,-1.79,-1.87,0,*66
1491267890.35,39582,14.75,73960.8,-0.89,-1.75,-1.79,0,*68
1491267891.61,39583,14.69,73960.5,-0.89,-1.87,-1.87,0,*65
1491267892.82,39584,14.75,73964.8,-0.89,-1.79,-1.75,0,*6E
1491267894.09,39585,14.75,73964.0,-0.89,-1.87,-1.91,0,*64
1491267895.33,39586,14.69,73962.5,-0.91,-1.91,-1.91,0,*69
1491267896.56,39587,14.69,73962.0,-0.89,-1.79,-1.87,0,*60
1491267897.8,39588,14.69,73964.5,-0.89,-1.79,-1.87,0,*6F
1491267899.01,39589,14.69,73966.5,-0.89,-1.79,-1.79,0,*6F
1491267900.25,39590,14.69,73966.8,-0.89,-1.87,-1.79,0,*66
1491267901.51,39591,14.75,73964.5,-0.89,-1.87,-1.87,0,*66
1491267902.72,39592,14.75,73966.5,-0.89,-1.75,-1.79,0,*69
1491267903.98,39593,14.69,73962.3,-0.89,-1.91,-1.91,0,*64
1491267905.2,39594,14.69,73960.8,-0.91,-1.87,-1.79,0,*6B
1491267906.44,39595,14.69,73962.0,-0.89,-1.79,-1.87,0,*63
1491267907.65,39596,14.69,73962.5,-0.89,-1.79,-1.79,0,*61
1491267908.88,39597,14.69,73966.0,-0.89,-1.75,-1.87,0,*6D
1491267910.1,39598,14.69,73964.3,-0.89,-1.79,-1.79,0,*6F
1491267911.33,39599,14.75,73966.5,-0.89,-1.79,-1.87,0,*6F
1491267912.57,39600,14.69,73956.8,-0.91,-1.87,-1.87,0,*64
1491267913.83,39601,14.69,73960.5,-0.91,-1.99,-1.99,0,*65
1491267915.07,39602,14.75,73960.3,-0.91,-1.91,-1.99,0,*6E
1491267916.33,39603,14.75,73960.0,-0.89,-1.87,-1.91,0,*69
1491267917.6,39604,14.69,73956.3,-0.89,-1.87,-1.87,0,*69
1491267918.79,39605,14.69,73958.3,-0.91,-1.79,-1.79,0,*61
1491267920.0,39606,14.69,73958.8,-0.89,-1.75,-1.75,0,*6B
1491267921.19,39607,14.69,73958.8,-0.91,-1.67,-1.67,0,*63
1491267922.38,39608,14.69,73960.8,-0.91,-1.75,-1.75,0,*6C
1491267923.57,39609,14.69,73958.5,-0.91,-1.75,-1.75,0,*6D
1491267924.81,39610,14.69,73962.3,-0.89,-1.79,-1.87,0,*6D
1491267926.02,39611,14.75,73962.8,-0.89,-1.67,-1.79,0,*62
1491267927.23,39612,14.75,73962.0,-0.89,-1.67,-1.67,0,*6E
1491267928.45,39613,14.75,73962.0,-0.89,-1.63,-1.67,0,*6B
1491267929.66,39614,14.69,73962.5,-0.89,-1.63,-1.67,0,*6C
1491267930.85,39615,14.75,73962.8,-0.91,-1.63,-1.67,0,*64
1491267932.07,39616,14.69,73958.8,-0.89,-1.63,-1.67,0,*6E
1491267933.28,39617,14.75,73960.0,-0.89,-1.67,-1.67,0,*6B
1491267934.5,39618,14.75,73964.8,-0.89,-1.67,-1.67,0,*64
1491267935.71,39619,14.69,73962.5,-0.89,-1.67,-1.63,0,*61
1491267936.92,39620,14.69,73960.0,-0.89,-1.67,-1.63,0,*6B
1491267938.13,39621,14.69,73960.8,-0.89,-1.67,-1.63,0,*6A
1491267939.34,39622,14.69,73960.8,-0.89,-1.63,-1.67,0,*69
1491267940.56,39623,14.75,73964.0,-0.89,-1.63,-1.67,0,*68
1491267941.77,39624,14.75,73968.3,-0.89,-1.63,-1.67,0,*6F
1491267942.98,39625,14.75,73966.8,-0.89,-1.63,-1.67,0,*6E
1491267944.2,39626,14.69,73966.8,-0.89,-1.63,-1.67,0,*6D
1491267945.41,39627,14.69,73966.0,-0.89,-1.63,-1.67,0,*6C
1491267946.62,39628,14.69,73968.0,-0.89,-1.63,-1.67,0,*63
1491267947.83,39629,14.75,73964.0,-0.89,-1.59,-1.67,0,*6B
1491267949.04,39630,14.75,73964.3,-0.89,-1.63,-1.63,0,*6E
1491267950.25,39631,14.75,73968.0,-0.89,-1.63,-1.63,0,*6F
1491267951.46,39632,14.69,73964.5,-0.85,-1.59,-1.59,0,*60
1491267952.66,39633,14.75,73968.3,-0.89,-1.59,-1.63,0,*64
1491267953.87,39634,14.69,73964.8,-0.89,-1.59,-1.59,0,*6A
1491267955.08,39635,14.75,73966.8,-0.89,-1.63,-1.63,0,*6B
1491267956.28,39636,14.75,73968.0,-0.89,-1.59,-1.59,0,*68
1491267957.49,39637,14.69,73968.0,-0.89,-1.59,-1.63,0,*60
1491267958.7,39638,14.75,73974.8,-0.89,-1.63,-1.63,0,*66
1491267959.9,39639,14.75,73970.0,-0.85,-1.55,-1.59,0,*67
1491267961.11,39640,14.75,73968.3,-0.85,-1.59,-1.59,0,*65
1491267962.32,39641,14.75,73968.5,-0.83,-1.55,-1.55,0,*62
1491267963.53,39642,14.75,73968.5,-0.89,-1.63,-1.59,0,*62
1491267964.74,39643,14.69,73968.0,-0.89,-1.63,-1.63,0,*6A
1491267965.95,39644,14.75,73968.5,-0.85,-1.55,-1.59,0,*6D
1491267967.15,39645,14.75,73970.0,-0.85,-1.59,-1.59,0,*60
1491267968.35,39646,14.75,73970.8,-0.85,-1.59,-1.59,0,*63
1491267969.55,39647,14.69,73966.8,-0.85,-1.59,-1.59,0,*62
1491267970.76,39648,14.69,73964.8,-0.85,-1.59,-1.59,0,*6D
1491267971.97,39649,14.69,73962.8,-0.83,-1.55,-1.55,0,*6A
1491267973.18,39650,14.75,73966.5,-0.85,-1.55,-1.55,0,*64
1491267974.39,39651,14.69,73964.5,-0.89,-1.63,-1.63,0,*69
1491267975.59,39652,14.69,73962.0,-0.85,-1.59,-1.59,0,*66
1491267976.81,39653,14.69,73960.8,-0.83,-1.55,-1.55,0,*61
1491267978.02,39654,14.75,73966.3,-0.85,-1.55,-1.55,0,*60
1491267979.22,39655,14.69,73966.5,-0.85,-1.59,-1.55,0,*6D
1491267980.43,39656,14.69,73962.3,-0.85,-1.55,-1.55,0,*62
1491267981.64,39657,14.75,73966.5,-0.83,-1.51,-1.51,0,*65
1491267982.85,39658,14.75,73964.3,-0.85,-1.55,-1.55,0,*6C
1491267984.09,39659,14.69,73960.3,-0.83,-1.51,-1.43,0,*68
1491267985.31,39660,14.75,73966.3,-0.83,-1.55,-1.55,0,*61
1491267986.52,39661,14.75,73966.5,-0.83,-1.51,-1.51,0,*60
1491267987.73,39662,14.69,73964.0,-0.85,-1.59,-1.59,0,*65
1491267988.93,39663,14.75,73962.0,-0.85,-1.59,-1.59,0,*64
1491267990.13,39664,14.75,73968.5,-0.85,-1.59,-1.59,0,*63
1491267991.35,39665,14.75,73964.8,-0.83,-1.55,-1.55,0,*64
1491267992.56,39666,14.75,73966.8,-0.83,-1.55,-1.55,0,*67
1491267993.78,39667,14.69,73962.8,-0.83,-1.55,-1.55,0,*66
1491267995.0,39668,14.69,73966.5,-0.83,-1.55,-1.55,0,*69
1491267996.22,39669,14.75,73966.5,-0.83,-1.55,-1.51,0,*6C
1491267997.43,39670,14.69,73962.0,-0.83,-1.51,-1.51,0,*60
1491267998.65,39671,14.75,73964.5,-0.83,-1.51,-1.51,0,*61
1491267999.89,39672,14.69,73966.0,-0.83,-1.43,-1.55,0,*65
1491268001.11,39673,14.75,73966.5,-0.83,-1.51,-1.51,0,*63
1491268002.32,39674,14.75,73968.5,-0.83,-1.55,-1.55,0,*64
1491268003.54,39675,14.69,73962.5,-0.83,-1.55,-1.55,0,*65
1491268004.75,39676,14.69,73964.5,-0.83,-1.55,-1.55,0,*66
1491268005.97,39677,14.69,73962.3,-0.83,-1.55,-1.55,0,*67
1491268007.17,39678,14.69,73960.5,-0.85,-1.59,-1.59,0,*6E
1491268008.39,39679,14.69,73962.5,-0.83,-1.55,-1.55,0,*69
1491268009.58,39680,14.69,73962.8,-0.81,-1.51,-1.55,0,*69
1491268010.77,39681,14.69,73962.8,-0.81,-1.55,-1.55,0,*6C
1491268011.95,39682,14.69,73962.3,-0.81,-1.55,-1.55,0,*6F
1491268013.17,39683,14.69,73966.3,-0.83,-1.55,-1.55,0,*6C
1491268014.36,39684,14.69,73962.8,-0.81,-1.55,-1.59,0,*65
1491268015.54,39685,14.69,73964.0,-0.81,-1.59,-1.59,0,*68
1491268016.73,39686,14.69,73962.0,-0.81,-1.59,-1.51,0,*63
1491268017.92,39687,14.69,73962.3,-0.81,-1.59,-1.51,0,*62
1491268019.11,39688,14.75,73962.5,-0.81,-1.59,-1.51,0,*6D
1491268020.29,39689,14.69,73962.0,-0.81,-1.59,-1.55,0,*68
1491268021.51,39690,14.69,73960.3,-0.79,-1.55,-1.63,0,*6E
1491268022.69,39691,14.69,73960.3,-0.81,-1.59,-1.59,0,*6D
1491268023.91,39692,14.69,73958.3,-0.83,-1.59,-1.59,0,*6C
1491268025.12,39693,14.69,73956.5,-0.83,-1.59,-1.59,0,*6D
1491268026.33,39694,14.69,73958.3,-0.83,-1.59,-1.55,0,*66
1491268027.54,39695,14.69,73962.3,-0.79,-1.55,-1.51,0,*6A
1491268028.74,39696,14.69,73962.5,-0.81,-1.67,-1.67,0,*6A
1491268029.92,39697,14.69,73962.3,-0.81,-1.59,-1.59,0,*6B
1491268031.11,39698,14.69,73960.0,-0.81,-1.59,-1.59,0,*64
1491268032.32,39699,14.75,73964.3,-0.79,-1.55,-1.55,0,*62
1491268033.54,39700,14.69,73960.5,-0.79,-1.55,-1.55,0,*63
1491268034.72,39701,14.75,73966.8,-0.81,-1.67,-1.59,0,*68
1491268035.94,39702,14.69,73962.5,-0.79,-1.63,-1.63,0,*61
1491268037.14,39703,14.69,73964.5,-0.81,-1.67,-1.67,0,*67
1491268038.35,39704,14.75,73968.0,-0.79,-1.63,-1.55,0,*62
1491268039.54,39705,14.69,73962.3,-0.81,-1.67,-1.67,0,*61
1491268040.76,39706,14.69,73964.3,-0.79,-1.63,-1.55,0,*60
1491268041.94,39707,14.75,73970.0,-0.81,-1.59,-1.59,0,*63
1491268043.15,39708,14.75,73960.5,-0.79,-1.55,-1.55,0,*6B
1491268044.37,39709,14.75,73964.8,-0.79,-1.55,-1.55,0,*6A
1491268045.58,39710,14.69,73962.5,-0.79,-1.55,-1.63,0,*67
1491268046.77,39711,14.69,73968.0,-0.81,-1.59,-1.67,0,*69
1491268047.97,39712,14.69,73964.8,-0.81,-1.67,-1.67,0,*67
1491268049.15,39713,14.69,73962.0,-0.81,-1.59,-1.59,0,*66
1491268050.37,39714,14.69,73966.8,-0.79,-1.55,-1.55,0,*66
1491268051.58,39715,14.75,73966.8,-0.79,-1.55,-1.55,0,*67
1491268052.79,39716,14.69,73964.8,-0.79,-1.63,-1.63,0,*64
1491268054.01,39717,14.69,73964.8,-0.79,-1.75,-1.75,0,*65
1491268055.23,39718,14.69,73968.3,-0.79,-1.75,-1.75,0,*6A
1491268056.44,39719,14.69,73970.8,-0.81,-1.91,-1.79,0,*6A
1491268057.66,39720,14.69,73970.0,-0.79,-1.79,-1.75,0,*6D
1491268058.88,39721,14.69,73972.3,-0.79,-1.79,-1.79,0,*60
1491268060.09,39722,14.69,73974.8,-0.79,-1.67,-1.67,0,*63
1491268061.31,39723,14.69,73974.3,-0.79,-1.75,-1.75,0,*62
1491268062.5,39724,14.69,73974.3,-0.81,-1.79,-1.79,0,*62
1491268063.7,39725,14.75,73976.5,-0.81,-1.67,-1.71,0,*64
1491268064.9,39726,14.69,73972.8,-0.81,-1.71,-1.71,0,*60
1491268066.1,39727,14.75,73976.3,-0.81,-1.71,-1.79,0,*69
1491268067.32,39728,14.69,73974.5,-0.81,-1.83,-1.79,0,*6B
1491268068.51,39729,14.69,73974.5,-0.81,-1.79,-1.79,0,*6F
1491268069.73,39730,14.69,73976.3,-0.81,-1.91,-1.79,0,*61
1491268070.95,39731,14.69,73974.8,-0.81,-1.71,-1.83,0,*6B
1491268072.17,39732,14.69,73970.5,-0.79,-1.75,-1.75,0,*62
1491268073.39,39733,14.75,73972.8,-0.81,-1.83,-1.79,0,*61
1491268074.63,39734,14.69,73970.5,-0.79,-1.67,-1.87,0,*6A
1491268075.88,39735,14.69,73968.0,-0.81,-1.83,-1.83,0,*62
1491268077.12,39736,14.69,73964.0,-0.81,-1.91,-1.91,0,*61
1491268078.39,39737,14.69,73966.5,-0.79,-1.87,-1.87,0,*67
1491268079.63,39738,14.69,73966.8,-0.81,-1.91,-1.83,0,*6C
1491268080.88,39739,14.69,73968.8,-0.81,-1.83,-1.83,0,*6E
1491268082.12,39740,14.75,73968.3,-0.81,-2.03,-1.95,0,*6C
1491268083.34,39741,14.69,73964.5,-0.81,-1.83,-1.79,0,*64
1491268084.56,39742,14.69,73970.8,-0.81,-1.71,-1.83,0,*6F
1491268085.78,39743,14.69,73972.5,-0.81,-1.83,-1.79,0,*66
1491268087.0,39744,14.69,73974.8,-0.81,-1.83,-1.79,0,*61
1491268088.22,39745,14.69,73968.3,-0.81,-1.83,-1.79,0,*60
1491268089.42,39746,14.69,73974.0,-0.81,-1.71,-1.79,0,*6E
1491268090.62,39747,14.69,73974.0,-0.81,-1.71,-1.79,0,*6F
1491268091.86,39748,14.69,73970.3,-0.81,-1.95,-1.95,0,*68
1491268093.12,39749,14.69,73968.0,-0.79,-1.87,-1.87,0,*6E
1491268094.34,39750,14.69,73968.8,-0.79,-1.79,-1.79,0,*66
1491268095.59,39751,14.69,73970.0,-0.81,-1.83,-1.91,0,*63
1491268096.83,39752,14.69,73968.3,-0.81,-1.91,-1.83,0,*60
1491268098.07,39753,14.69,73968.8,-0.81,-1.91,-1.91,0,*62
1491268099.31,39754,14.69,73968.5,-0.81,-1.87,-1.91,0,*62
1491268100.56,39755,14.69,73972.3,-0.79,-1.79,-1.87,0,*62
1491268101.8,39756,14.69,73974.3,-0.81,-1.83,-1.83,0,*67
1491268102.99,39757,14.69,73970.5,-0.81,-1.79,-1.79,0,*66
1491268104.19,39758,14.69,73974.0,-0.81,-1.79,-1.79,0,*69
1491268105.4,39759,14.69,73970.8,-0.79,-1.75,-1.75,0,*6F
1491268106.6,39760,14.69,73970.0,-0.81,-1.71,-1.67,0,*65